This is the latest recevied weather packets stored in our database for station/object DB8NZ-22. If no packets are shown the sender has not sent any weather packets the latest 10 day(s).
| Time | Temp. | Humidity | Pressure | Rain* | Wind** | Luminosity | Snow |
|---|---|---|---|---|---|---|---|
| 1777120296 | 27.22° C | 20% | 1017.2 hPa | - | - | - | - |
| 1777119396 | 25.56° C | 20% | 1017.3 hPa | - | - | - | - |
| 1777118495 | 25° C | 21% | 1017.6 hPa | - | - | - | - |
| 1777117595 | 25.56° C | 22% | 1017.7 hPa | - | - | - | - |
| 1777116695 | 25° C | 23% | 1017.9 hPa | - | - | - | - |
| 1777115795 | 24.44° C | 24% | 1018.2 hPa | - | - | - | - |
| 1777114895 | 23.89° C | 24% | 1018.2 hPa | - | - | - | - |
| 1777113995 | 22.78° C | 24% | 1018.3 hPa | - | - | - | - |
| 1777113095 | 22.78° C | 27% | 1018.4 hPa | - | - | - | - |
| 1777112195 | 22.22° C | 28% | 1018.6 hPa | - | - | - | - |
| 1777111295 | 21.67° C | 29% | 1018.6 hPa | - | - | - | - |
| 1777110395 | 20.56° C | 32% | 1018.5 hPa | - | - | - | - |
| 1777109495 | 19.44° C | 33% | 1018.7 hPa | - | - | - | - |
| 1777108595 | 19.44° C | 35% | 1018.7 hPa | - | - | - | - |
| 1777107695 | 18.33° C | 36% | 1018.8 hPa | - | - | - | - |
| 1777106794 | 17.78° C | 38% | 1018.9 hPa | - | - | - | - |
| 1777105894 | 16.67° C | 41% | 1019.1 hPa | - | - | - | - |
| 1777104994 | 16.11° C | 42% | 1019.1 hPa | - | - | - | - |
| 1777104094 | 15.56° C | 45% | 1019.1 hPa | - | - | - | - |
| 1777103194 | 14.44° C | 47% | 1019.1 hPa | - | - | - | - |
| 1777102294 | 13.33° C | 50% | 1019.2 hPa | - | - | - | - |
| 1777101394 | 12.78° C | 51% | 1019.1 hPa | - | - | - | - |
| 1777100494 | 11.67° C | 52% | 1019.2 hPa | - | - | - | - |
| 1777099594 | 11.11° C | 53% | 1019.3 hPa | - | - | - | - |
| 1777098694 | 10° C | 54% | 1019.3 hPa | - | - | - | - |
* Rain since midnight (hover to see other rain measurements)
** Current wind speed in m/s (hover to see current wind gust speed)